CW0439 Weather Reports


time (UTC)temp
C
wind
direction
speed
KPH
gust
KPH
rain 1hr
cm
rain 24hr
cm
rain mn
cm
humidity
%
barometer
mb
20260502161615 14 35 3.2 20.9 0.00 0.00 0.00 34 1021.0
20260502160622 13 64 4.8 16.1 0.00 0.00 0.00 35 1020.9
20260502151623 10 63 4.8 14.5 0.00 0.00 0.00 39 1021.1
20260502150611 10 22 4.8 19.3 0.00 0.00 0.00 40 1021.1
20260502130619 5 5 6.4 14.5 0.00 0.00 0.00 49 1020.6
20260502123616 5 355 4.8 17.7 0.00 0.00 0.00 49 1020.6
20260502122628 6 61 4.8 16.1 0.00 0.00 0.00 48 1020.6
20260502121616 6 32 4.8 24.1 0.00 0.00 0.00 47 1020.6
20260502120630 6 96 6.4 20.9 0.00 0.00 0.00 47 1020.6
20260502115628 6 11 4.8 16.1 0.00 0.00 0.00 47 1020.6
20260502114622 6 44 3.2 16.1 0.00 0.00 0.00 49 1020.6
20260502113648 6 13 4.8 14.5 0.00 0.00 0.00 49 1020.6
20260502112616 6 42 4.8 14.5 0.00 0.00 0.00 48 1020.7
20260502111625 6 89 3.2 12.9 0.00 0.00 0.00 50 1020.7
20260502110617 5 100 4.8 12.9 0.00 0.00 0.00 55 1020.7
20260502105617 4 120 3.2 9.7 0.00 0.00 0.00 60 1020.9
20260502104624 4 146 0.0 4.8 0.00 0.00 0.00 60 1020.7
20260502103613 4 146 0.0 3.2 0.00 0.00 0.00 60 1020.9
20260502102647 4 146 1.6 4.8 0.00 0.00 0.00 61 1020.8
20260502101634 5 175 0.0 6.4 0.00 0.00 0.00 61 1020.7
20260502100621 5 299 1.6 3.2 0.00 0.00 0.00 61 1020.6
20260502090628 6 179 0.0 4.8 0.00 0.00 0.00 56 1020.7
20260502070613 7 97 1.6 6.4 0.00 0.00 0.00 55 1020.4
20260502065616 7 90 0.0 4.8 0.00 0.00 0.00 53 1020.3
20260502064627 7 100 1.6 6.4 0.00 0.00 0.00 54 1020.4
20260502063617 7 161 0.0 4.8 0.00 0.00 0.00 53 1020.4
20260502062611 7 190 1.6 4.8 0.00 0.00 0.00 55 1020.3
20260502061642 8 190 1.6 3.2 0.00 0.00 0.00 54 1020.3
20260502060612 8 190 0.0 3.2 0.00 0.00 0.00 54 1020.3
20260502055612 8 190 0.0 3.2 0.00 0.00 0.00 54 1020.3
20260502054620 8 190 0.0 3.2 0.00 0.00 0.00 51 1020.2
20260502053651 8 190 1.6 3.2 0.00 0.00 0.00 52 1020.3
20260502052639 8 190 1.6 4.8 0.00 0.00 0.00 53 1020.1
20260502051627 9 190 1.6 3.2 0.00 0.00 0.00 53 1020.2
20260502050619 9 190 1.6 3.2 0.00 0.00 0.00 50 1020.2
20260502045640 9 190 0.0 3.2 0.00 0.00 0.00 51 1020.2
20260502044612 10 190 0.0 1.6 0.00 0.00 0.00 50 1020.2
20260502043622 10 190 0.0 1.6 0.00 0.00 0.00 50 1020.2
20260502042650 11 190 1.6 1.6 0.00 0.00 0.00 48 1020.1
20260502041619 11 190 3.2 3.2 0.00 0.00 0.00 46 1020.1
20260502040612 11 190 0.0 0.0 0.00 0.00 0.00 45 1020.1
20260502035614 11 190 0.0 1.6 0.00 0.00 0.00 46 1019.9
20260502034624 12 190 0.0 3.2 0.00 0.00 0.00 45 1019.8
20260502033619 12 190 0.0 1.6 0.00 0.00 0.00 43 1019.7
20260502032631 13 190 0.0 3.2 0.00 0.00 0.00 41 1019.6
20260502031621 13 190 1.6 4.8 0.00 0.00 0.00 41 1019.6
20260502030631 13 190 1.6 3.2 0.00 0.00 0.00 40 1019.5
20260502025615 14 190 0.0 0.0 0.00 0.00 0.00 38 1019.3
20260502024624 15 190 1.6 3.2 0.00 0.00 0.00 38 1019.1
20260502023649 15 190 0.0 4.8 0.00 0.00 0.00 36 1018.9
20260502022614 15 170 3.2 8.0 0.00 0.00 0.00 36 1018.9
20260502021623 16 171 3.2 6.4 0.00 0.00 0.00 36 1018.7
20260502020615 16 263 1.6 11.3 0.00 0.00 0.00 33 1018.5
20260502015615 17 232 3.2 6.4 0.00 0.00 0.00 27 1018.5
20260502014623 17 309 4.8 16.1 0.00 0.00 0.00 26 1018.3
20260502013633 18 273 6.4 9.7 0.00 0.00 0.00 26 1018.3
20260502012625 18 355 6.4 16.1 0.00 0.00 0.00 26 1018.3
20260502011634 18 300 8.0 19.3 0.00 0.00 0.00 25 1018.2
20260502010620 18 269 3.2 12.9 0.00 0.00 0.00 25 1018.2
20260502005638 18 290 6.4 14.5 0.00 0.00 0.00 26 1018.4
20260502004626 18 267 8.0 14.5 0.00 0.00 0.00 24 1018.4
20260502003619 18 313 8.0 14.5 0.00 0.00 0.00 25 1018.5
20260502002648 18 310 8.0 16.1 0.00 0.00 0.00 25 1018.5
20260502001614 18 316 4.8 16.1 0.00 0.00 0.00 25 1018.7
20260502000623 18 259 12.9 19.3 0.00 0.00 0.00 24 1018.6
20260501235627 18 276 9.7 14.5 0.00 0.00 0.00 25 1018.6
20260501234615 18 355 6.4 16.1 0.00 0.00 0.00 25 1018.6
20260501233624 18 298 12.9 20.9 0.00 0.00 0.00 25 1018.6
20260501232613 18 5 6.4 20.9 0.00 0.00 0.00 25 1018.5
20260501231645 18 276 9.7 19.3 0.00 0.00 0.00 25 1018.5
20260501230632 18 360 8.0 19.3 0.00 0.00 0.00 25 1018.7
20260501225650 18 300 8.0 19.3 0.00 0.00 0.00 25 1018.7
20260501224619 18 328 11.3 22.5 0.00 0.00 0.00 26 1018.7
20260501223626 18 331 11.3 19.3 0.00 0.00 0.00 25 1018.8
20260501222618 18 350 11.3 24.1 0.00 0.00 0.00 25 1018.9
20260501221648 18 360 11.3 27.4 0.00 0.00 0.00 26 1019.0
20260501220623 17 339 11.3 24.1 0.00 0.00 0.00 24 1019.2
20260501215626 18 332 9.7 20.9 0.00 0.00 0.00 26 1019.3
20260501214621 18 50 11.3 22.5 0.00 0.00 0.00 25 1019.3
20260501213612 18 344 8.0 22.5 0.00 0.00 0.00 26 1019.4
20260501212622 18 302 9.7 20.9 0.00 0.00 0.00 25 1019.3
20260501211618 18 333 4.8 17.7 0.00 0.00 0.00 23 1019.4
20260501210628 18 323 6.4 17.7 0.00 0.00 0.00 20 1019.6
20260501205649 18 360 8.0 19.3 0.00 0.00 0.00 21 1019.6
20260501204618 18 336 4.8 12.9 0.00 0.00 0.00 20 1019.6
20260501203613 17 142 6.4 14.5 0.00 0.00 0.00 20 1019.5
20260501202625 17 244 8.0 17.7 0.00 0.00 0.00 21 1019.6
20260501201616 17 15 6.4 16.1 0.00 0.00 0.00 22 1019.5
20260501200627 17 296 9.7 24.1 0.00 0.00 0.00 21 1019.6
20260501195645 17 53 1.6 16.1 0.00 0.00 0.00 22 1019.6
20260501194616 17 187 4.8 16.1 0.00 0.00 0.00 21 1019.7
20260501193625 17 257 6.4 12.9 0.00 0.00 0.00 19 1019.8
20260501192651 17 104 3.2 12.9 0.00 0.00 0.00 23 1019.9
20260501191639 16 151 11.3 19.3 0.00 0.00 0.00 22 1020.2
20260501190649 16 114 11.3 20.9 0.00 0.00 0.00 21 1020.2
20260501185630 16 144 4.8 16.1 0.00 0.00 0.00 21 1020.4
20260501184641 16 119 9.7 19.3 0.00 0.00 0.00 18 1020.5
20260501183611 16 57 4.8 19.3 0.00 0.00 0.00 23 1020.7
20260501182626 16 126 8.0 16.1 0.00 0.00 0.00 23 1020.7
20260501181613 16 92 3.2 14.5 0.00 0.00 0.00 22 1020.9
20260501180625 16 109 3.2 17.7 0.00 0.00 0.00 23 1020.9
20260501175628 16 23 6.4 17.7 0.00 0.00 0.00 24 1021.1
20260501174618 15 107 4.8 25.7 0.00 0.00 0.00 25 1021.1
20260501173614 15 355 6.4 19.3 0.00 0.00 0.00 25 1020.9
20260501172625 15 68 4.8 17.7 0.00 0.00 0.00 26 1021.0
20260501171614 15 101 6.4 19.3 0.00 0.00 0.00 26 1021.1
20260501170630 15 91 9.7 19.3 0.00 0.00 0.00 26 1021.1
20260501165631 14 26 6.4 20.9 0.00 0.00 0.00 27 1021.0
20260501164619 14 79 4.8 22.5 0.00 0.00 0.00 29 1021.1
20260501163627 14 86 3.2 17.7 0.00 0.00 0.00 30 1021.2
20260501162640 13 118 4.8 16.1 0.00 0.00 0.00 29 1021.2